Location: Allaines
(49.9632°N, 2.9458°E)
Time: 02:19:51
(UTC+00:00)

STARLINK-1214 - Pass Details

Date: 09 April 2020
Orbit: 377 x 382 km, 53.0° (Epoch: 03 June)

Event Time Altitude Azimuth Distance (km) Brightness Sun altitude
Rises 20:08:29 0° 290° (WNW) 2,201 8.4 -14.9°
Maximum altitude 20:13:21 31° 215° (SW) 665 4.0 -15.5°
Enters shadow 20:14:10 26° 182° (S) 754 4.0 -15.6°
